Regional Weather Roundup
Issued by NWS

Home | Current Version | Previous Version | Text Only | Print | Product List | Glossary On
Versions: 1 2 3 4 5 6 7 8 9 10 11 12 13 14 15 16 17 18 19 20 21 22 23 24 25 26 27 28 29 30 31 32 33 34 35 36 37 38 39 40 41 42 43 44 45 46 47 48 49 50
000
ASUS43 KTOP 302359
RWRKS

WEATHER ROUNDUP FOR KANSAS
NATIONAL WEATHER SERVICE GOODLAND KS
600 PM CST FRI JAN 30 2015

NOTE:  "FAIR" INDICATES FEW OR NO CLOUDS BELOW 12,000 FEET WITH NO
SIGNIFICANT WEATHER AND/OR OBSTRUCTIONS TO VISIBILITY.

KSZ001>006-013>018-027>032-041>047-310100-
NORTHWEST KANSAS

CITY           SKY/WX    TMP DP  RH WIND       PRES   REMARKS
GOODLAND       CLOUDY    37  32  82 S20G28    30.15F WCI  27
6HR MIN TEMP:  37; 6HR MAX TEMP:  48; 6HR PCP: TRACE;

HAYS           CLOUDY    39  27  60 SE8       30.29F
HILL CITY      LGT RAIN  40  33  76 SE8       30.24F
6HR MIN TEMP:  40; 6HR MAX TEMP:  46; 6HR PCP: TRACE;

RUSSELL        LGT RAIN  39  32  76 S12       30.30F WCI  32
6HR MIN TEMP:  39; 6HR MAX TEMP:  45; 6HR PCP: TRACE;

$$

KSZ061>065-074>080-084>089-310100-
SOUTHWEST KANSAS

CITY           SKY/WX    TMP DP  RH WIND       PRES   REMARKS
DODGE CITY     CLOUDY    41  25  53 S12       30.29S
6HR MIN TEMP:  41; 6HR MAX TEMP:  42;

ELKHART          N/A     33  28  81 S10         N/A  WCI  25
GARDEN CITY    LGT RAIN  35  33  92 S17       30.25S FOG     WCI  25
6HR MIN TEMP:  35; 6HR MAX TEMP:  44; 6HR PCP:  0.03;

LIBERAL        CLOUDY    36  28  75 SE7       30.29S
$$

KSZ066>073-081>083-090>101-310100-
SOUTHEAST KANSAS

CITY           SKY/WX    TMP DP  RH WIND       PRES   REMARKS
CHANUTE        CLOUDY    40  23  50 SE3       30.40F
6HR MIN TEMP:  36; 6HR MAX TEMP:  44;

COFFEYVILLE    CLOUDY    41  25  53 NE5       30.42F
6HR MIN TEMP:  38; 6HR MAX TEMP:  45;

HUTCHINSON     CLOUDY    40  27  59 S8        30.36F
6HR MIN TEMP:  40; 6HR MAX TEMP:  43; 6HR PCP: TRACE;

MEDICINE LODGE   N/A     40  26  57 SE6       30.35S
NEWTON         CLOUDY    39  21  48 S7        30.38F
PARSONS        CLOUDY    41  24  51 CALM      30.42F
6HR MIN TEMP:  37; 6HR MAX TEMP:  44;

WICHITA INTL   CLOUDY    41  25  53 SE5       30.36F
6HR MIN TEMP:  38; 6HR MAX TEMP:  43;

WICHITA JABRA  CLOUDY    41  25  53 S5        30.37F
6HR MIN TEMP:  38; 6HR MAX TEMP:  43;

WINFIELD       CLOUDY    43  24  47 E5        30.39F
6HR MIN TEMP:  40; 6HR MAX TEMP:  45;

$$

KSZ007>012-019>026-033>040-048>060-102>105-310100-
NORTHEAST KANSAS

CITY           SKY/WX    TMP DP  RH WIND       PRES   REMARKS
CONCORDIA      CLOUDY    41  26  55 S16       30.31F
6HR MIN TEMP:  38; 6HR MAX TEMP:  44;

EMPORIA        CLOUDY    38  24  57 S7        30.37F
6HR MIN TEMP:  36; 6HR MAX TEMP:  42;

LAWRENCE       CLOUDY    35  22  58 S7        30.40F
6HR MIN TEMP:  33; 6HR MAX TEMP:  41;

MANHATTAN      CLOUDY    39  26  59 SE3       30.36F
6HR MIN TEMP:  36; 6HR MAX TEMP:  45;

OLATHE IND     CLOUDY    36  23  59 SE7       30.40F
6HR MIN TEMP:  34; 6HR MAX TEMP:  40;

OLATHE EXE     CLOUDY    36  22  56 S3        30.39F
6HR MIN TEMP:  33; 6HR MAX TEMP:  40;

SALINA         CLOUDY    42  26  53 S9        30.35F
6HR MIN TEMP:  42; 6HR MAX TEMP:  45;

TOPEKA BILLARD CLOUDY    38  21  50 S5        30.39F
6HR MIN TEMP:  34; 6HR MAX TEMP:  42;

TOPEKA FORBES  CLOUDY    38  22  52 S5        30.38F
6HR MIN TEMP:  34; 6HR MAX TEMP:  42;

$$



USA.gov is the U.S. government's official web portal to all federal, state and local government web resources and services.